This is the latest recevied weather packets stored in our database for station/object KI2K. If no packets are shown the sender has not sent any weather packets the latest 10 day(s).
| Time | Temp. | Humidity | Pressure | Rain* | Wind** | Luminosity | Snow |
|---|---|---|---|---|---|---|---|
| 1777658078 | 11.11° C | 66% | 1015.7 hPa | 0 mm | - | 170 W/m² | - |
| 1777657775 | 12.22° C | 64% | 1015.5 hPa | 0 mm | - | 261 W/m² | - |
| 1777657473 | 11.67° C | 62% | 1015.7 hPa | 0 mm | - | 222 W/m² | - |
| 1777657170 | 11.11° C | 69% | 1015.7 hPa | 0 mm | - | 798 W/m² | - |
| 1777656868 | 10.56° C | 72% | 1015.6 hPa | 0 mm | - | 890 W/m² | - |
| 1777656563 | 10.56° C | 71% | 1015.8 hPa | 0 mm | - | 236 W/m² | - |
| 1777656259 | 11.11° C | 69% | 1015.5 hPa | 0 mm | - | 257 W/m² | - |
| 1777655954 | 11.11° C | 66% | 1015.4 hPa | 0 mm | - | 788 W/m² | - |
| 1777655651 | 11.67° C | 68% | 1015.5 hPa | 0 mm | - | 683 W/m² | - |
| 1777655348 | 11.11° C | 70% | 1015.5 hPa | 0 mm | - | 772 W/m² | - |
| 1777655044 | 10.56° C | 71% | 1015.1 hPa | 0 mm | - | 749 W/m² | - |
| 1777654743 | 10.56° C | 69% | 1015.3 hPa | 0 mm | - | 200 W/m² | - |
| 1777654440 | 10.56° C | 70% | 1015.4 hPa | 0 mm | - | 294 W/m² | - |
| 1777654137 | 10° C | 74% | 1015.4 hPa | 0 mm | - | 765 W/m² | - |
| 1777653835 | 9.44° C | 76% | 1015.5 hPa | 0 mm | - | 165 W/m² | - |
| 1777653531 | 9.44° C | 76% | 1015.4 hPa | 0 mm | - | 166 W/m² | - |
| 1777653227 | 10° C | 75% | 1015.4 hPa | 0 mm | - | 269 W/m² | - |
| 1777652924 | 10° C | 75% | 1015.3 hPa | 0 mm | - | 545 W/m² | - |
| 1777652621 | 10.56° C | 73% | 1015.2 hPa | 0 mm | - | 349 W/m² | - |
| 1777652318 | 10° C | 74% | 1015.1 hPa | 0 mm | - | 862 W/m² | - |
| 1777652014 | 10.56° C | 76% | 1015.2 hPa | 0 mm | - | 883 W/m² | - |
| 1777651711 | 10° C | 78% | 1015.4 hPa | 0 mm | - | 754 W/m² | - |
| 1777651408 | 9.44° C | 78% | 1015.3 hPa | 0 mm | - | 186 W/m² | - |
| 1777651106 | 8.89° C | 79% | 1015 hPa | 0 mm | - | 252 W/m² | - |
| 1777650802 | 8.89° C | 77% | 1015.3 hPa | 0 mm | - | 588 W/m² | - |
* Rain latest hour (hover to see other rain measurements)
** Current wind speed in m/s (hover to see current wind gust speed)